This is the latest recevied weather packets stored in our database for station/object WC4PEM-6. If no packets are shown the sender has not sent any weather packets the latest 1 day(s).
| Time | Temp. | Humidity | Pressure | Rain* | Wind** | Luminosity | Snow |
|---|---|---|---|---|---|---|---|
| 1778010905 | 30.56° C | 45% | 1014 hPa | 0 mm | 1.79 m/s, 309° | - | - |
| 1778010685 | 30.56° C | 46% | 1014.2 hPa | 0 mm | 1.79 m/s, 87° | - | - |
| 1778010605 | 30.56° C | 46% | 1014.2 hPa | 0 mm | 1.79 m/s, 87° | - | - |
| 1778010305 | 30° C | 45% | 1014 hPa | 0 mm | 1.79 m/s, 9° | - | - |
| 1778010082 | 29.44° C | 46% | 1014 hPa | 0 mm | 1.34 m/s, 93° | - | - |
| 1778010005 | 29.44° C | 46% | 1014 hPa | 0 mm | 1.34 m/s, 93° | - | - |
| 1778009756 | 29.44° C | 47% | 1014.2 hPa | 0 mm | 1.34 m/s, 126° | - | - |
| 1778009705 | 29.44° C | 47% | 1014.2 hPa | 0 mm | 1.34 m/s, 126° | - | - |
| 1778009405 | 29.44° C | 47% | 1014.2 hPa | 0 mm | 1.34 m/s, 298° | - | - |
| 1778009178 | 30° C | 46% | 1014.3 hPa | 0 mm | 0.89 m/s, 126° | - | - |
| 1778009105 | 30° C | 46% | 1014.3 hPa | 0 mm | 0.89 m/s, 126° | - | - |
| 1778008805 | 29.44° C | 47% | 1014.6 hPa | 0 mm | 0.89 m/s, 93° | - | - |
| 1778008558 | 30° C | 46% | 1014.5 hPa | 0 mm | 1.34 m/s, 178° | - | - |
| 1778008505 | 30° C | 46% | 1014.5 hPa | 0 mm | 1.34 m/s, 178° | - | - |
| 1778008205 | 30° C | 47% | 1014.5 hPa | 0 mm | 1.34 m/s, 93° | - | - |
| 1778007905 | 30° C | 45% | 1014.5 hPa | 0 mm | 1.79 m/s, 67° | - | - |
| 1778007605 | 30° C | 47% | 1014.5 hPa | 0 mm | 2.24 m/s, 67° | - | - |
| 1778007305 | 29.44° C | 47% | 1014.5 hPa | 0 mm | 1.34 m/s, 16° | - | - |
| 1778007005 | 28.89° C | 48% | 1014.9 hPa | 0 mm | 0.89 m/s, 265° | - | - |
| 1778006764 | 28.89° C | 48% | 1014.7 hPa | 0 mm | 0.89 m/s, 51° | - | - |
| 1778006705 | 28.89° C | 48% | 1014.7 hPa | 0 mm | 0.89 m/s, 51° | - | - |
| 1778006405 | 28.89° C | 49% | 1014.8 hPa | 0 mm | 1.34 m/s, 93° | - | - |
| 1778006158 | 29.44° C | 48% | 1014.8 hPa | 0 mm | 1.34 m/s, 178° | - | - |
| 1778006105 | 29.44° C | 48% | 1014.8 hPa | 0 mm | 1.34 m/s, 178° | - | - |
| 1778005805 | 29.44° C | 46% | 1014.8 hPa | 0 mm | 1.34 m/s, 78° | - | - |
* Rain latest hour (hover to see other rain measurements)
** Current wind speed in m/s (hover to see current wind gust speed)